N2YJJ-2 Weather Reports


Display with metric or nautical units.
time (UTC)temp
F
wind
direction
speed
MPH
gust
MPH
rain 1hr
in
rain 24hr
in
rain mn
in
humidity
%
barometer
mb
20260903013002 70 115 1.0 3.0 0.00 0.60 0.60 99 1017.9
20260903011002 69 200 1.0 2.0 0.00 0.60 0.60 99 1017.1
20260903005002 69 185 0.0 2.0 0.00 0.60 0.60 99 1016.2
20260903003002 70 148 1.0 3.0 0.01 0.60 0.60 99 1016.1
20260903002002 69 235 0.0 2.0 0.01 0.60 0.60 99 1016.6
20260903000002 70 44 0.0 2.0 0.01 0.60 0.60 98 1016.6
20260902235002 70 63 0.0 3.0 0.01 0.60 0.60 98 1017.2
20260902233003 71 305 1.0 7.0 0.00 0.59 0.59 97 1018.8
20260902232003 72 342 1.0 6.0 0.01 0.59 0.59 97 1020.0
20260902231002 72 216 3.0 9.0 0.01 0.59 0.59 97 1017.7
20260902225002 73 136 3.0 7.0 0.01 0.59 0.59 95 1017.0
20260902224002 75 310 2.0 20.0 0.01 0.59 0.59 93 1016.6
20260902223002 78 340 6.0 14.0 0.01 0.59 0.59 93 1017.2
20260902222002 79 51 1.0 3.0 0.00 0.58 0.58 94 1015.3
20260902221003 80 98 1.0 2.0 0.01 0.58 0.58 93 1015.4
20260902220003 81 200 0.0 1.0 0.01 0.58 0.58 92 1015.5
20260902215003 81 200 0.0 2.0 0.01 0.58 0.58 91 1015.4
20260902214002 81 148 1.0 3.0 0.01 0.58 0.58 90 1015.2
20260902213003 82 213 0.0 2.0 0.01 0.58 0.58 90 1015.7
20260902212002 82 111 0.0 3.0 0.02 0.58 0.58 91 1016.4
20260902210002 83 219 0.0 2.0 0.01 0.57 0.57 89 1017.0
20260902205003 83 219 0.0 2.0 0.01 0.57 0.57 89 1016.9
20260902204002 83 200 1.0 2.0 0.02 0.57 0.57 88 1017.3
20260902200003 85 119 1.0 6.0 0.02 0.56 0.56 84 1017.9
20260902195003 85 210 1.0 3.0 0.02 0.56 0.56 84 1018.2
20260902192003 85 344 2.0 8.0 0.01 0.55 0.55 86 1018.3
20260902191002 84 116 1.0 6.0 0.02 0.55 0.55 86 1018.3
20260902190002 83 233 1.0 3.0 0.01 0.54 0.54 87 1018.2
20260902185003 82 228 1.0 6.0 0.01 0.54 0.54 89 1018.2
20260902184003 82 178 2.0 5.0 0.02 0.54 0.54 88 1018.5
20260902183003 81 115 3.0 7.0 0.02 0.54 0.54 87 1018.7
20260902182003 81 217 1.0 8.0 0.02 0.54 0.54 87 1018.5
20260902180005 81 319 3.0 10.0 0.02 0.53 0.53 90 1018.3
20260902175004 80 313 2.0 7.0 0.02 0.53 0.53 93 1018.6
20260902174003 79 248 1.0 8.0 0.02 0.52 0.52 92 1018.7
20260902173003 79 131 1.0 3.0 0.02 0.52 0.52 92 1019.0
20260902172003 79 270 1.0 3.0 0.02 0.52 0.52 91 1018.9
20260902171003 80 201 2.0 8.0 0.02 0.51 0.51 89 1018.7
20260902170003 80 177 1.0 8.0 0.02 0.51 0.51 90 1019.1
20260902165003 81 203 1.0 7.0 0.02 0.51 0.51 90 1019.9
20260902164003 82 106 1.0 3.0 0.02 0.50 0.50 88 1020.0
20260902163003 82 12 1.0 3.0 0.02 0.50 0.50 88 1019.3
20260902162003 81 244 2.0 6.0 0.02 0.50 0.50 91 1018.9
20260902160003 79 245 1.0 5.0 0.02 0.49 0.49 93 1019.1
20260902155003 78 248 1.0 8.0 0.02 0.49 0.49 94 1019.4
20260902154003 77 203 3.0 8.0 0.02 0.48 0.48 97 1019.4
20260902153003 76 265 2.0 10.0 0.02 0.48 0.48 100 1019.5
20260902151003 74 253 0.0 2.0 0.04 0.48 0.48 100 1019.8
20260902150003 72 148 0.0 3.0 0.04 0.47 0.47 100 1019.7
20260902145003 72 199 1.0 3.0 0.05 0.47 0.47 100 1020.1
20260902144003 71 118 0.0 0.0 0.05 0.46 0.46 100 1020.2
20260902142003 70 128 0.0 2.0 0.06 0.45 0.45 100 1020.1
20260902140003 70 190 1.0 3.0 0.08 0.43 0.43 100 1020.3
20260902135003 70 141 2.0 7.0 0.09 0.42 0.42 100 1020.5
20260902134003 69 135 2.0 3.0 0.10 0.41 0.41 100 1020.4
20260902133004 69 110 2.0 6.0 0.12 0.40 0.40 100 1020.5
20260902132003 68 152 2.0 6.0 0.14 0.39 0.39 100 1020.6
20260902130003 68 81 1.0 3.0 0.16 0.35 0.35 100 1020.8
20260902125003 68 60 1.0 2.0 0.18 0.33 0.33 100 1020.8
20260902124004 68 102 1.0 3.0 0.24 0.31 0.31 100 1020.6
20260902123004 68 154 1.0 3.0 0.28 0.28 0.28 100 1020.7
20260902122003 67 150 2.0 8.0 0.25 0.25 0.25 100 1020.4
20260902121004 67 99 1.0 5.0 0.23 0.23 0.23 100 1020.7
20260902115004 67 137 2.0 14.0 0.15 0.15 0.15 99 1020.0
20260902114005 68 346 7.0 23.0 0.07 0.07 0.07 99 1021.0
20260902113005 71 1 3.0 13.0 0.00 0.00 0.00 100 1021.3
20260902112006 71 200 1.0 3.0 0.00 0.00 0.00 100 1018.5
20260902111005 70 313 0.0 2.0 0.00 0.00 0.00 100 1017.5
20260902110007 70 177 1.0 2.0 0.00 0.00 0.00 100 1017.1
20260902105005 70 177 0.0 0.0 0.00 0.00 0.00 100 1018.0
20260902104005 70 177 0.0 0.0 0.00 0.00 0.00 100 1017.9
20260902103006 70 177 0.0 0.0 0.00 0.00 0.00 100 1017.8
20260902101005 70 177 0.0 1.0 0.00 0.00 0.00 100 1018.1
20260902100005 69 177 0.0 0.0 0.00 0.00 0.00 100 1017.9
20260902095005 69 177 0.0 0.0 0.00 0.00 0.00 100 1018.0
20260902094005 69 177 0.0 0.0 0.00 0.00 0.00 100 1018.1
20260902093006 69 177 0.0 1.0 0.00 0.00 0.00 100 1018.6
20260902092005 69 177 0.0 0.0 0.00 0.00 0.00 100 1019.1
20260902091005 69 177 0.0 0.0 0.00 0.00 0.00 100 1019.0
20260902090005 69 177 0.0 0.0 0.00 0.00 0.00 100 1019.1
20260902084005 69 177 0.0 0.0 0.00 0.01 0.00 100 1019.0
20260902083006 69 177 0.0 0.0 0.00 0.01 0.00 100 1019.1
20260902082006 69 177 0.0 0.0 0.00 0.04 0.00 100 1019.4
20260902081005 68 177 0.0 0.0 0.00 0.06 0.00 100 1019.5
20260902080007 68 177 0.0 0.0 0.00 0.06 0.00 100 1019.5
20260902075006 68 177 0.0 0.0 0.00 0.06 0.00 100 1019.6
20260902074006 68 177 0.0 0.0 0.00 0.06 0.00 100 1019.6
20260902071005 68 177 0.0 0.0 0.00 0.06 0.00 99 1019.8
20260902070007 69 177 0.0 0.0 0.00 0.06 0.00 99 1019.9
20260902065005 69 177 0.0 2.0 0.00 0.06 0.00 100 1020.0
20260902064006 69 156 1.0 3.0 0.00 0.06 0.00 99 1019.8
20260902063006 68 152 0.0 3.0 0.00 0.06 0.00 99 1019.9
20260902062006 69 114 0.0 0.0 0.00 0.06 0.00 99 1020.0
20260902060005 69 114 0.0 2.0 0.00 0.06 0.00 99 1020.1
20260902055005 69 114 0.0 2.0 0.00 0.06 0.00 99 1020.1
20260902053005 69 134 1.0 3.0 0.00 0.06 0.00 99 1020.1
20260902052005 69 154 1.0 2.0 0.00 0.06 0.00 99 1020.1
20260902051005 69 117 0.0 3.0 0.00 0.06 0.00 99 1020.1
20260902045006 69 114 0.0 2.0 0.00 0.06 0.00 99 1020.2
20260902044006 69 114 0.0 3.0 0.00 0.06 0.00 99 1020.2
20260902041006 69 119 0.0 3.0 0.00 0.11 0.00 99 1020.2
20260902040005 69 134 1.0 3.0 0.00 0.13 0.00 99 1020.1
20260902035006 69 92 0.0 2.0 0.00 0.15 0.11 99 1020.0
20260902033006 70 75 1.0 3.0 0.00 0.15 0.11 99 1020.0
20260902032006 70 129 0.0 2.0 0.00 0.15 0.11 99 1020.0
20260902031006 70 90 1.0 3.0 0.00 0.15 0.11 99 1019.9
20260902030007 70 127 0.0 0.0 0.00 0.15 0.11 98 1019.8
20260902024006 70 127 0.0 2.0 0.00 0.15 0.11 98 1020.0
20260902022003 71 140 1.0 3.0 0.00 0.15 0.11 98 1019.9
20260902020003 71 119 1.0 3.0 0.00 0.15 0.11 98 1019.9
20260902015003 71 62 1.0 3.0 0.00 0.15 0.11 98 1019.9